Regional Weather Roundup
Issued by NWS Cleveland, OH

Current Version | Previous Version | Text Only | Print | Product List | Glossary On
Versions: 1 2 3 4 5 6 7 8 9 10 11 12 13 14 15 16 17 18 19 20 21 22 23 24 25 26 27 28 29 30 31 32 33 34 35 36 37 38 39 40 41 42 43 44 45 46 47 48 49 50
000
ASUS41 KCLE 171712
RWRCLE
OHIO REGIONAL WEATHER ROUNDUP
NATIONAL WEATHER SERVICE WILMINGTON, OH
100 PM EDT MON JUN 17 2019

NOTE: "FAIR" INDICATES FEW OR NO CLOUDS BELOW 12,000 FEET WITH NO
SIGNIFICANT WEATHER AND/OR OBSTRUCTIONS TO VISIBILITY.

OHZ001>008-015>018-024>027-034-035-043-044-171800-
   NORTHWEST OHIO

CITY           SKY/WX    TMP DP  RH WIND       PRES   REMARKS
DEFIANCE       CLOUDY    69  61  75 VRB5      30.01S
FINDLAY        CLOUDY    69  63  81 VRB3      30.00S
TOLEDO EXPRESS CLOUDY    71  60  68 VRB5      30.01S
TOLEDO EXEC    CLOUDY    68  61  78 NE5       30.03R
LIMA           CLOUDY    68  65  90 CALM      30.01R
$$

OHZ009>014-019>023-028>033-038-089-171800-
   NORTHEAST OHIO

CITY           SKY/WX    TMP DP  RH WIND       PRES   REMARKS
CLE-HOPKINS    CLOUDY    69  63  81 SW5       30.03R
CLE-LAKEFRONT  PTSUNNY   67  61  81 NW5       30.00R HAZE
CUY CO. ARPT   CLOUDY    66  63  88 NW5       30.01R
LORAIN-ELYRIA  CLOUDY    67  60  78 CALM      30.02R
ASHTABULA      CLOUDY    69  66  90 CALM      30.01S
AKRON-CANTON   CLOUDY    74  66  76 W7        30.01R
WOOSTER        CLOUDY    72  68  87 W6        30.02R
MANSFIELD      CLOUDY    68  68 100 SW7       30.02S
YOUNGSTOWN     CLOUDY    70  65  84 CALM      30.01R
$$

OHZ042-051>053-060>062-070>072-077>081-171800-
  SOUTHWEST OHIO

CITY           SKY/WX    TMP DP  RH WIND       PRES   REMARKS
CINC-COVINGTON PTSUNNY   79  69  71 W5        30.00S
CINC-LUNKEN    PTSUNNY   78  70  76 SE3       30.00S
HAMILTON       PTSUNNY   75  74  96 CALM      30.01S
DAYTON         CLOUDY    72  67  84 S7        30.02S
WRIGHT-PAT AFB CLOUDY    71  69  90 SW5       30.01S
DAYTON GENERAL LGT RAIN  75  68  78 SW7       30.01S
WILMINGTON     LGT RAIN  71  70  96 W5        30.02S
$$

OHZ036-037-039>041-045>050-054>059-063>069-073>076-082>088-171800-
  CENTRAL AND SOUTHEAST OHIO

CITY           SKY/WX    TMP DP  RH WIND       PRES   REMARKS
COLUMBUS       CLOUDY    74  67  78 SW8       30.01R
OSU AIRPORT    CLOUDY    72  68  87 SW6       30.01R
BOLTON FIELD   CLOUDY    73  68  83 W7        30.03R
RICKENBACK AFB CLOUDY    73  68  84 SW10      30.02R
NEWARK         CLOUDY    74  68  81 W8        30.02S
MARION         CLOUDY    71  66  84 SW6       30.02R
LANCASTER      CLOUDY    74  68  81 SW9       30.03R
ZANESVILLE     CLOUDY    73  65  75 W7        30.03R
NEW PHILLY     CLOUDY    71  67  87 CALM      30.03R
$$



USA.gov is the U.S. government's official web portal to all federal, state and local government web resources and services.